sat.trackr.live / text

‹ back to catalog

STARLINK-36562

NORAD 67570 · 2026-016K

PAYLOAD ACTIVE UNKNOWN

§ Identity

Operator
Country
US
Launch date
2026-01-25
Launch site
AFWTR
Launch vehicle
Mass (kg)
RCS (m²)

Purposes: comms

External: N2YO · Heavens-Above · Gunter

§ Orbital elements

Epoch: 2026-09-19T09:34:59.075904Z

Period
93.91 min
Inclination
97.2851°
Eccentricity
0.0000622
Mean motion
15.33452958 rev/d
Perigee alt
465.1 km
Apogee alt
465.9 km
Semi-major
6,843.7 km
B*
4.0532e-4
RAAN
321.1063°
Arg perigee
92.4740°
Mean anomaly
267.6574°
Rev number
3,655

§ Raw data

STARLINK-365621 67570U 26016K   26262.39929486  .00013036  00000+0  40532-3 0  99972 67570  97.2851 321.1063 0000622  92.4740 267.6574 15.33452958 36552

JSON: /api/v1/satellites/67570 · /tle

For live sub-satellite position, see the globe view (requires WebGL).

§ Visibility from observer

Set your observer location to see the next 7 days of passes ≥ 10°. The values pass through the URL so the page stays shareable.

No JS? Fill the form by hand. The geolocation button needs JavaScript.